Location: Unspecified
(49.2170°N, 0.0000°E)
Time: 02:43:15
(UTC+00:00)

Transit 2A - Pass Details

Date: 19 June 2019
Orbit: 594 x 965 km, 66.7° (Epoch: 17 July)

Event Time Altitude Azimuth Distance (km) Brightness Sun altitude
Exits shadow 23:55:36 21° 146° (SE) 2,007 7.7 -17.3°
Maximum altitude 23:58:12 28° 109° (ESE) 1,720 7.6 -17.3°
Drops below altitude 10° 00:03:25 10° 54° (NE) 2,674 9.3 -17.4°
Sets 00:06:16 0° 43° (NE) 3,590 10.2 -17.3°
